Location: De Har
(53.3413°N, 6.6858°E)
Time: 20:17:10
(UTC+00:00)

Cosmos 1842 - Pass Details

Date: 22 April 2026
Orbit: 396 x 402 km, 82.5° (Epoch: 21 May)

Event Time Altitude Azimuth Distance (km) Brightness Sun altitude
Exits shadow 02:37:35 20° 265° (W) 1,003 4.2 -13.5°
Maximum altitude 02:38:28 23° 291° (WNW) 925 4.2 -13.4°
Drops below altitude 10° 02:41:06 10° 346° (NNW) 1,476 5.9 -13.1°
Sets 02:43:25 0° 2° (N) 2,340 7.2 -12.8°
